Theta_e
326 327 327 328 328 328 328 329 328 328 328 328 329 328 326 322 320 319 318 319 323 333 337 339 341 342 344 345 345 346 346 346 345
325 325 326 327 328 328 328 328 328 327 327 327 327 327 327 322 319 318 318 317 323 328 334 342 342 342 343 344 344 345 344 346 346
325 325 325 326 326 326 327 327 326 325 326 326 326 325 323 317 317 318 319 321 331 329 334 334 336 337 340 343 344 343 342 343 345
325 325 325 325 325 325 325 325 325 324 325 325 325 323 321 318 317 316 321 331 328 327 329 330 331 332 333 334 336 338 340 341 342
321 322 323 322 322 323 324 324 323 322 322 323 323 320 317 319 319 320 323 328 327 327 328 328 329 330 330 331 331 332 333 335 337
314 318 319 319 319 321 321 321 320 317 316 318 319 317 318 318 319 320 326 328 327 327 329 329 330 330 330 330 331 331 332 332 333
312 313 315 316 316 316 318 318 316 313 313 315 315 317 317 317 318 321 325 327 328 330 330 330 331 331 330 331 331 331 331 331 332
310 311 311 312 311 311 312 312 312 312 311 312 314 315 316 317 319 319 327 329 329 329 329 329 329 329 329 330 332 331 330 330 330
308 309 309 310 310 310 311 311 311 311 310 310 311 313 315 316 319 320 326 328 329 330 330 332 332 330 330 328 329 328 329 331 331
308 308 308 308 310 310 310 310 310 310 309 309 309 310 313 315 318 322 325 326 327 327 328 329 330 331 333 333 332 332 332 332 331
308 308 307 308 309 309 309 309 309 309 309 308 309 310 312 313 316 322 324 323 325 325 326 326 326 329 330 331 330 330 331 331 332
307 307 307 307 308 309 309 309 310 309 308 308 310 312 313 314 317 321 322 317 317 322 325 325 325 325 326 328 328 329 329 329 330
307 307 306 307 308 308 308 308 308 308 307 307 310 312 315 316 320 319 312 311 311 315 315 319 322 323 324 325 327 328 328 328 329
307 306 306 306 307 307 307 307 307 306 306 307 310 312 316 319 315 310 308 309 310 310 309 313 317 318 321 323 323 323 323 325 327
305 304 305 306 306 305 306 305 306 306 305 305 308 311 311 313 312 308 307 307 308 308 309 312 315 313 315 316 318 319 319 320 324
303 303 303 304 303 303 304 304 304 305 306 305 306 308 310 310 309 309 307 306 307 307 309 312 314 311 310 311 313 315 316 318 320
302 302 301 302 302 302 302 303 303 304 304 302 302 300 304 307 307 310 307 305 306 306 310 311 310 308 307 307 309 311 314 317 318
302 301 301 301 301 300 301 301 301 301 303 304 302 298 297 300 305 305 305 305 304 305 309 306 304 303 304 305 306 307 310 314 316
301 300 300 300 300 300 300 301 301 302 300 303 303 303 302 298 297 304 304 304 303 304 308 303 302 301 302 301 304 305 307 311 313
300 299 299 299 299 299 299 299 300 301 301 301 302 302 302 302 300 296 299 301 303 303 304 302 301 300 301 301 303 303 305 309 311
Wind_Speed
11 12 12 11 11 11 11 11 11 11 10 11 10 8 8 5 5 5 5 5 8 8 7 7 9 6 9 10 9 9 10 10 9
10 10 10 11 11 12 10 11 10 11 10 11 11 10 8 6 5 5 5 5 8 8 8 7 6 7 8 9 9 8 9 11 12
10 9 10 11 11 11 12 11 12 11 11 10 10 10 9 5 6 6 5 5 6 4 5 7 8 9 10 9 7 7 7 10 11
11 12 11 12 12 12 12 12 12 12 12 11 11 10 8 5 4 5 4 10 6 5 6 7 7 7 8 8 8 7 5 7 10
10 10 11 12 11 12 12 12 12 12 11 11 11 9 6 6 5 4 4 9 6 6 6 6 7 7 7 7 7 6 7 7 7
7 9 10 11 11 10 10 10 11 10 9 10 9 6 4 5 4 3 9 8 6 6 7 7 7 7 7 6 7 7 7 7 8
5 7 10 12 12 11 11 11 10 8 5 5 6 4 5 4 3 2 7 6 6 7 8 8 8 7 7 6 6 7 7 7 8
4 4 5 5 9 5 7 7 6 7 6 5 4 5 4 3 3 3 7 7 7 6 7 8 8 8 8 8 6 6 8 7 8
5 4 5 5 5 6 6 5 6 8 8 7 7 5 4 3 2 3 6 8 8 9 8 11 10 7 7 6 8 8 9 10 10
4 4 4 5 5 5 6 6 6 7 8 7 6 5 5 4 2 2 8 10 10 10 11 12 13 13 13 10 10 11 11 9 9
4 4 5 5 5 5 5 6 6 6 7 8 6 6 5 4 3 3 6 12 11 9 10 10 10 12 13 13 12 12 12 12 12
4 4 5 5 5 6 5 5 5 5 6 6 6 5 4 1 4 4 5 6 10 11 10 11 11 11 10 11 12 13 14 15 15
5 4 5 5 4 5 6 5 6 5 7 6 5 5 4 5 6 6 6 5 5 6 13 11 11 11 11 11 12 13 14 15 17
5 5 5 5 4 5 5 4 5 5 8 5 4 6 5 5 6 7 8 8 7 5 8 10 9 11 11 12 13 14 15 15 16
5 4 6 6 5 6 6 6 6 5 8 4 3 3 4 4 5 5 6 7 7 7 6 5 5 11 12 13 14 15 16 16 17
5 3 5 5 5 5 6 4 5 5 8 4 3 3 2 3 3 4 4 8 6 7 5 3 3 4 10 13 14 16 17 17 17
4 4 4 5 4 6 6 6 3 3 6 3 0 3 1 2 3 1 2 7 5 6 5 5 5 5 5 9 13 16 18 18 18
4 4 3 3 3 3 4 5 6 4 4 7 3 1 2 4 2 3 4 8 4 4 3 5 5 6 5 7 9 16 17 18 18
3 4 4 4 3 5 4 4 3 1 4 1 4 3 2 3 4 1 2 8 5 4 1 4 5 6 5 7 9 15 15 16 17
3 4 4 4 3 3 4 4 4 3 2 2 1 1 1 0 2 5 5 5 4 4 2 2 3 6 6 6 8 15 15 15 15
Wind_Direction
38 32 33 31 28 26 28 25 27 25 22 21 15 20 23 13 359 338 325 321 317 315 317 315 314 311 272 262 258 251 245 247 242
27 29 23 25 25 26 28 25 25 27 23 20 19 20 22 12 11 360 341 315 306 306 313 4 3 342 329 251 258 259 261 255 250
33 29 28 29 26 23 24 26 24 22 20 19 19 22 25 17 11 5 358 329 310 293 36 21 19 21 18 5 268 264 271 264 254
36 31 34 27 22 21 22 21 21 20 18 18 20 20 20 9 11 3 0 341 7 23 23 10 2 3 2 358 12 17 346 294 276
33 33 35 28 24 23 23 23 23 21 19 17 16 14 16 16 1 5 358 350 353 354 1 357 349 341 351 347 344 341 335 329 329
31 30 31 28 25 23 22 25 23 16 12 11 10 12 22 11 8 357 348 350 358 10 2 357 350 341 340 339 328 321 318 318 316
29 26 24 21 19 14 16 16 14 11 3 355 357 4 360 6 4 359 341 346 7 12 7 351 347 337 332 327 318 319 322 315 304
27 18 15 7 12 11 5 4 12 4 1 353 352 344 352 355 354 7 355 20 13 13 13 5 347 336 320 316 338 332 321 316 303
26 18 7 10 4 0 2 357 355 356 354 351 343 342 343 346 348 33 4 40 36 34 28 28 23 18 2 343 344 332 321 316 316
13 14 13 9 2 3 354 354 358 352 350 345 338 335 334 339 6 64 41 48 42 35 25 21 15 5 16 24 25 21 8 360 340
19 15 12 10 3 355 351 359 354 350 346 345 348 338 323 319 13 76 67 48 37 39 33 27 16 13 8 11 13 16 7 357 346
24 21 16 7 355 351 360 8 358 352 350 357 354 351 349 8 96 78 65 46 36 24 23 21 21 13 10 5 7 4 3 355 352
34 25 20 1 5 2 1 11 354 355 356 357 16 20 47 89 92 77 65 45 30 23 12 12 15 15 11 8 5 3 358 353 349
34 23 15 8 18 16 4 6 0 356 356 358 35 45 61 79 91 75 56 40 32 16 2 7 15 15 16 14 8 3 355 349 345
30 28 24 17 20 15 10 6 11 0 353 338 22 57 70 82 80 72 55 32 26 12 5 359 23 22 20 15 9 3 358 355 344
39 36 34 27 33 19 13 354 4 15 4 350 8 19 11 105 107 91 68 32 23 14 5 14 25 18 14 13 7 360 356 353 352
55 42 38 28 23 27 24 26 356 13 21 33 302 9 320 337 356 109 74 31 23 22 45 44 38 24 6 2 3 358 354 351 351
52 57 55 53 44 43 28 23 31 14 21 34 23 12 356 327 341 336 5 9 27 26 69 66 43 21 8 2 355 356 352 348 348
46 52 44 43 29 30 17 24 34 42 42 20 44 50 2 338 317 269 333 349 353 355 76 87 49 27 8 353 347 352 347 346 344
32 38 37 35 34 29 22 22 29 29 15 30 8 52 44 181 281 302 322 330 328 327 284 139 42 15 1 348 343 346 346 346 345